Location: Asheville, NC
(35.6000°N, 82.5500°W)
Time: 05:07:52
(UTC-05:00)

Vanguard 3 - Pass Details

Date: 17 February 2018
Orbit: 508 x 3264 km, 33.3° (Epoch: 17 February)

Event Time Altitude Azimuth Distance (km) Brightness Sun altitude
Rises 14:24:50 0° 207° (SSW) 3,840 11.6 37.0°
Reaches altitude 10° 14:30:08 10° 173° (S) 2,309 10.3 36.4°
Maximum altitude 14:31:31 11° 158° (SSE) 2,109 9.8 36.2°
Drops below altitude 10° 14:32:48 10° 141° (SE) 2,065 9.6 36.1°
Sets 14:36:33 0° 103° (ESE) 2,708 9.7 35.7°
